[[{"header":{"parameterUnit":"m.s-1","parameterCategory":1,"la1":30.2991,"la2":30.254,"lo1":-89.0895,"lo2":-89.0444,"dy":0.0017,"dx":0.0017,"nx":28,"ny":28,"refTime":"2024-10-06T03:00:00:Z","depth":0,"parameterNumber":2,"parameterNumberName":"U-component_of_WINDS"},"data":[0,0,0,0,0,0,0,0,0,0,0,0,0,0,0,0,0,0,0,0,0,0,0,0,0,0,0,0,0,0,0,0,0,0,0,0,0,0,0,0,0,0,0,0,0,0,0,0,0,0,0,0,0,0,0,0,0,0,-3.5535,-3.5536,0,-3.5604,-3.5605,-3.5606,-3.5589,-3.5588,-3.5586,-3.5585,-3.5655,-3.5658,-3.5661,0,0,0,0,0,0,0,0,0,0,0,0,0,-3.539,-3.5393,-3.5535,-3.5536,-3.5537,-3.5604,-3.5605,-3.5606,-3.5589,-3.5588,-3.5586,-3.5585,-3.5654,-3.5657,-3.5661,0,0,0,0,0,0,0,0,0,0,0,0,0,-3.5456,-3.5394,-3.5535,-3.5537,-3.5538,-3.5604,-3.5605,-3.5606,-3.559,-3.5588,-3.5586,-3.5584,-3.5653,-3.5657,-3.5662,-3.573,0,0,-3.5676,-3.5678,0,0,0,0,0,0,0,0,-3.5452,-3.5461,-3.5536,-3.5537,-3.5538,-3.5586,-3.5579,-3.5647,-3.559,-3.557,-3.5585,-3.5583,-3.5633,-3.564,-3.5657,-3.5733,-3.5736,-3.5676,-3.5679,-3.5681,-3.5682,0,0,0,0,0,0,0,-3.5447,-3.5458,-3.5562,-3.5537,-3.5538,-3.5534,-3.5542,-3.5592,-3.5612,-3.5572,-3.557,-3.5579,-3.5634,-3.5652,-3.5658,-3.5737,-3.5676,-3.568,-3.5683,-3.5685,-3.5876,-3.5879,0,0,0,0,0,0,-3.5442,-3.5454,-3.556,-3.5564,-3.5489,-3.5539,-3.5547,-3.5572,-3.5611,-3.5615,-3.5581,-3.5578,-3.5645,-3.5653,-3.5661,-3.5746,-3.5681,-3.5685,-3.5688,-3.5874,-3.5877,-3.5879,0,0,0,0,0,0,-3.5439,-3.5452,-3.5557,-3.5509,-3.5522,-3.5543,-3.5573,-3.5575,-3.5594,-3.5618,-3.5622,-3.5596,-3.5644,-3.5654,-3.5714,-3.5748,-3.5687,-3.5692,-3.5871,-3.5875,-3.5878,-3.5914,0,0,0,0,0,0,-3.5435,-3.5451,-3.5476,-3.551,-3.5525,-3.5609,-3.5575,-3.5578,-3.5602,-3.5599,-3.5634,-3.5637,-3.5643,-3.5707,-3.5718,-3.5753,-3.5695,-3.5868,-3.5873,-3.5877,-3.591,-3.5919,-3.5926,0,0,0,0,0,-3.543,-3.5483,-3.5478,-3.5491,-3.5558,-3.5611,-3.562,-3.5626,-3.5604,-3.5631,-3.5647,-3.5636,-3.5742,-3.5713,-3.5726,-3.5762,-3.5866,-3.5872,-3.5877,-3.5907,-3.5917,-3.5926,0,0,0,0,0,0,-3.5452,-3.5487,-3.5482,-3.5547,-3.5576,-3.5608,-3.5641,-3.5636,-3.5671,-3.5667,-3.5673,-3.5681,-3.5742,-3.5758,-3.5725,-3.5832,-3.5801,-3.5809,-3.582,-3.583,-3.5837,-3.5833,-3.5699,0,0,0,0,0,-3.5464,-3.5505,-3.5533,-3.5588,-3.5603,-3.562,-3.5643,-3.5646,-3.5676,-3.5688,-3.5708,-3.5738,-3.5778,-3.5805,-3.5842,-3.5912,-3.5921,-3.5944,-3.5952,-3.5958,-3.5965,-3.6006,-3.6018,-3.5897,-3.5896,-3.5896,0,0,-3.549,-3.5515,-3.5539,-3.5593,-3.5616,-3.5659,-3.563,-3.5675,-3.5708,-3.5695,-3.5753,-3.5769,-3.5803,-3.5869,-3.5899,-3.5884,-3.6001,-3.5965,-3.5969,-3.5973,-3.6013,-3.6024,-3.6034,-3.59,-3.5899,-3.5899,0,0,-3.556,-3.5582,-3.5631,-3.5655,-3.5691,-3.5702,-3.5714,-3.5747,-3.5758,-3.5817,-3.5809,-3.5847,-3.5915,-3.5941,-3.5962,-3.6045,-3.6037,-3.6057,-3.6098,-3.6138,-3.6148,-3.6156,-3.6188,-3.6199,-3.6064,-3.6064,-3.6064,0,-3.5588,-3.5651,-3.5657,-3.5705,-3.573,-3.5721,-3.5772,-3.5795,-3.5841,-3.5859,-3.5841,-3.5929,-3.5951,-3.6024,-3.6045,-3.6062,-3.6077,-3.6053,-3.6146,-3.6154,-3.6162,-3.6193,-3.6205,-3.6066,-3.6066,-3.6066,-3.6066,0,-3.5685,-3.573,-3.5766,-3.5812,-3.5841,-3.5889,-3.5904,-3.5932,-3.5933,-3.5946,-3.6007,-3.6034,-3.6078,-3.6096,-3.6095,-3.617,-3.616,-3.6144,-3.6113,-3.6176,-3.6205,-3.6217,-3.607,-3.6069,-3.6068,-3.6068,0,0,-3.577,-3.5821,-3.5834,-3.5856,-3.5896,-3.5931,-3.598,-3.6024,-3.605,-3.6082,-3.6125,-3.6184,-3.6171,-3.6196,-3.6199,-3.6234,-3.6301,-3.6215,-3.6215,-3.6232,-3.6387,-3.64,-3.6413,-3.6296,-3.6298,-3.63,-3.6385,0,-3.5845,-3.5932,-3.594,-3.6019,-3.6062,-3.6056,-3.6099,-3.6129,-3.6143,-3.6181,-3.6197,-3.624,-3.6218,-3.6234,-3.6268,-3.6286,-3.6333,-3.6279,-3.6337,-3.6339,-3.6331,-3.6428,-3.6441,-3.652,-3.6396,-3.6398,-3.6399,0,-3.5943,-3.5981,-3.6065,-3.6101,-3.6119,-3.6158,-3.6201,-3.6238,-3.6272,-3.628,-3.6309,-3.6309,-3.6361,-3.6328,-3.6401,-3.6365,-3.6389,-3.6401,-3.6405,-3.6411,-3.6374,-3.6439,-3.6546,-3.6558,-3.6417,-3.6415,-3.6414,0,-3.6,-3.6071,-3.6131,-3.615,-3.6193,-3.6221,-3.6241,-3.6273,-3.63,-3.6338,-3.6356,-3.6399,-3.6423,-3.6456,-3.6468,-3.6442,-3.6541,-3.6508,-3.6551,-3.6551,-3.6573,-3.6572,-3.6687,-3.6586,-3.6585,-3.6585,-3.6585,0,-3.6084,-3.6136,-3.6157,-3.6194,-3.6253,-3.6262,-3.632,-3.6338,-3.6367,-3.6409,-3.6405,-3.6444,-3.6456,-3.6497,-3.6506,-3.6567,-3.6577,-3.6586,-3.6588,-3.6588,-3.6587,-3.6605,-3.66,-3.6588,-3.6588,-3.6587,-3.6587,0,-3.6157,-3.6173,-3.6239,-3.6275,-3.6286,-3.6328,-3.636,-3.6396,-3.641,-3.6463,-3.6476,-3.6498,-3.6547,-3.6562,-3.6619,-3.6626,-3.6698,-3.6694,-3.6687,-3.6688,-3.673,-3.6727,-3.6862,-3.6881,-3.6766,-3.6767,-3.6768,0,-3.621,-3.625,-3.6292,-3.632,-3.6341,-3.6386,-3.6414,-3.6425,-3.6455,-3.6499,-3.6531,-3.6579,-3.6618,-3.6697,-3.6719,-3.6764,-3.6762,-3.6807,-3.6769,-3.6768,-3.6766,-3.6764,-3.6769,-3.6814,-3.6815,-3.6816,-3.6817,0,-3.6304,-3.6311,-3.6352,-3.6398,-3.6432,-3.6468,-3.6502,-3.6525,-3.6542,-3.6576,-3.6626,-3.6657,-3.6718,-3.6767,-3.6813,-3.6833,-3.6829,-3.6829,-3.6841,-3.6842,-3.6837,-3.6843,-3.6708,-3.6826,-3.6825,-3.6824,-3.6824,-3.6823,-3.637,-3.6407,-3.6443,-3.649,-3.6518,-3.6551,-3.6588,-3.6608,-3.665,-3.6701,-3.6705,-3.676,-3.6796,-3.6858,-3.6881,-3.6925,-3.6912,-3.693,-3.6935,-3.694,-3.6944,-3.6829,-3.6933,-3.6933,-3.6933,-3.6933,-3.6932,0,-3.6466,-3.6489,-3.6533,-3.6582,-3.662,-3.6613,-3.6651,-3.6684,-3.6732,-3.6766,-3.6806,-3.6865,-3.6913,-3.694,-3.6988,-3.7019,-3.7018,-3.7031,-3.703,-3.7035,-3.6952,-3.6937,-3.7031,-3.7031,-3.7031,-3.7031,-3.7031,-3.7031,-3.652,-3.6583,-3.6594,-3.6671,-3.6694,-3.6749,-3.6772,-3.6804,-3.6831,-3.6898,-3.6938,-3.6955,-3.6987,-3.7038,-3.7083,-3.7089,-3.7108,-3.7123,-3.7129,-3.7051,-3.7041,-3.7031,-3.7017,-3.7127,-3.7127,-3.7209,-3.721,-3.721]},{"header":{"parameterUnit":"m.s-1","parameterCategory":1,"la1":30.2991,"la2":30.254,"lo1":-89.0895,"lo2":-89.0444,"dy":0.0017,"dx":0.0017,"nx":28,"ny":28,"refTime":"2024-10-06T03:00:00:Z","depth":0,"parameterNumber":3,"parameterNumberName":"V-component_of_WINDS"},"data":[0,0,0,0,0,0,0,0,0,0,0,0,0,0,0,0,0,0,0,0,0,0,0,0,0,0,0,0,0,0,0,0,0,0,0,0,0,0,0,0,0,0,0,0,0,0,0,0,0,0,0,0,0,0,0,0,0,0,-2.1226,-2.1227,0,-2.1355,-2.1356,-2.1358,-2.1412,-2.1412,-2.1412,-2.1412,-2.1546,-2.1549,-2.1553,0,0,0,0,0,0,0,0,0,0,0,0,0,-2.1031,-2.1035,-2.1226,-2.1227,-2.1229,-2.1354,-2.1356,-2.1358,-2.1412,-2.1412,-2.1412,-2.1412,-2.1544,-2.1549,-2.1553,0,0,0,0,0,0,0,0,0,0,0,0,0,-2.1133,-2.1036,-2.1225,-2.1271,-2.1277,-2.1354,-2.1356,-2.1358,-2.1412,-2.1412,-2.1412,-2.1411,-2.1543,-2.1548,-2.1554,-2.1596,0,0,-2.1571,-2.1574,0,0,0,0,0,0,0,0,-2.1128,-2.1141,-2.1263,-2.1268,-2.1274,-2.1367,-2.1337,-2.1438,-2.1413,-2.1361,-2.1412,-2.1411,-2.1487,-2.1497,-2.1522,-2.1602,-2.1608,-2.1572,-2.1575,-2.1578,-2.1579,0,0,0,0,0,0,0,-2.112,-2.1135,-2.1277,-2.1265,-2.1272,-2.1287,-2.1301,-2.1356,-2.1424,-2.1365,-2.137,-2.1384,-2.149,-2.1516,-2.1525,-2.161,-2.1572,-2.1577,-2.158,-2.1583,-2.1736,-2.1737,0,0,0,0,0,0,-2.1105,-2.1129,-2.1273,-2.1281,-2.1199,-2.129,-2.1306,-2.1338,-2.1424,-2.1437,-2.1384,-2.1386,-2.1507,-2.1519,-2.153,-2.1589,-2.1578,-2.1583,-2.1586,-2.1736,-2.1736,-2.1737,0,0,0,0,0,0,-2.1101,-2.1118,-2.1268,-2.1206,-2.1226,-2.1294,-2.1329,-2.134,-2.1367,-2.1438,-2.1451,-2.1399,-2.1507,-2.1522,-2.158,-2.1594,-2.1586,-2.1591,-2.1735,-2.1736,-2.1737,-2.1703,0,0,0,0,0,0,-2.1095,-2.1116,-2.1131,-2.1206,-2.1229,-2.1314,-2.133,-2.1343,-2.1376,-2.138,-2.1455,-2.1467,-2.1508,-2.1571,-2.1586,-2.1601,-2.1595,-2.1734,-2.1735,-2.1736,-2.1703,-2.1702,-2.1702,0,0,0,0,0,-2.1088,-2.1116,-2.1132,-2.1149,-2.125,-2.1314,-2.1328,-2.1374,-2.1377,-2.1394,-2.1441,-2.1465,-2.159,-2.1577,-2.1594,-2.1611,-2.1733,-2.1735,-2.1736,-2.1703,-2.1703,-2.1702,0,0,0,0,0,0,-2.104,-2.1126,-2.1145,-2.1197,-2.1248,-2.1323,-2.1346,-2.1371,-2.1422,-2.1423,-2.1479,-2.1496,-2.1549,-2.1586,-2.157,-2.1659,-2.1664,-2.1669,-2.1633,-2.1633,-2.1632,-2.1623,-2.16,0,0,0,0,0,-2.1036,-2.108,-2.1153,-2.1193,-2.1217,-2.1277,-2.1307,-2.1338,-2.1393,-2.1415,-2.1465,-2.1519,-2.1571,-2.1603,-2.1655,-2.1708,-2.1727,-2.1729,-2.1728,-2.1728,-2.1732,-2.1767,-2.1769,-2.1742,-2.1742,-2.1742,0,0,-2.1027,-2.108,-2.1104,-2.1185,-2.1228,-2.1274,-2.1295,-2.1342,-2.1378,-2.1423,-2.1481,-2.152,-2.1583,-2.164,-2.1668,-2.1672,-2.1743,-2.1729,-2.1728,-2.1733,-2.1768,-2.1771,-2.1773,-2.1743,-2.1743,-2.1743,0,0,-2.1036,-2.1079,-2.1118,-2.1162,-2.1227,-2.1267,-2.1276,-2.1349,-2.1377,-2.1436,-2.1472,-2.1515,-2.1602,-2.1647,-2.1681,-2.1711,-2.1736,-2.1726,-2.1724,-2.1757,-2.1759,-2.1762,-2.1775,-2.1779,-2.1729,-2.1729,-2.1729,0,-2.1017,-2.1087,-2.1135,-2.1182,-2.1218,-2.1261,-2.1303,-2.1342,-2.1421,-2.1446,-2.1449,-2.1562,-2.1607,-2.1677,-2.1685,-2.171,-2.1725,-2.1718,-2.1755,-2.1758,-2.176,-2.1774,-2.1779,-2.1728,-2.1728,-2.1728,-2.1728,0,-2.1063,-2.1111,-2.1135,-2.1211,-2.125,-2.1293,-2.135,-2.1383,-2.1412,-2.1452,-2.1514,-2.1571,-2.1636,-2.1655,-2.1682,-2.173,-2.1731,-2.1744,-2.1751,-2.1761,-2.1775,-2.178,-2.1726,-2.1726,-2.1727,-2.1727,0,0,-2.1043,-2.1148,-2.1156,-2.1193,-2.1269,-2.1308,-2.1355,-2.1419,-2.1448,-2.1502,-2.1545,-2.1619,-2.1632,-2.1671,-2.1705,-2.1734,-2.1758,-2.1744,-2.1747,-2.1747,-2.1817,-2.1808,-2.1813,-2.1774,-2.1776,-2.1776,-2.1813,0,-2.1064,-2.115,-2.1196,-2.1263,-2.1311,-2.1354,-2.1396,-2.1448,-2.1488,-2.1535,-2.158,-2.1632,-2.1645,-2.1669,-2.17,-2.1748,-2.1773,-2.1746,-2.1817,-2.1819,-2.1802,-2.182,-2.181,-2.1842,-2.1818,-2.1819,-2.182,0,-2.1099,-2.1154,-2.1225,-2.13,-2.1322,-2.1358,-2.1423,-2.1466,-2.1528,-2.1556,-2.16,-2.1634,-2.1688,-2.169,-2.1767,-2.1747,-2.178,-2.1808,-2.1811,-2.1821,-2.1821,-2.1833,-2.1853,-2.1858,-2.1828,-2.1828,-2.1827,0,-2.1082,-2.1172,-2.1228,-2.1258,-2.1346,-2.1371,-2.1409,-2.147,-2.1507,-2.1564,-2.1589,-2.165,-2.1685,-2.1733,-2.1784,-2.1779,-2.1857,-2.1862,-2.1883,-2.1882,-2.1898,-2.1897,-2.1926,-2.1915,-2.1915,-2.1915,-2.1915,0,-2.1101,-2.1144,-2.1222,-2.1256,-2.1307,-2.1361,-2.141,-2.1452,-2.1507,-2.1552,-2.1592,-2.1634,-2.1697,-2.1748,-2.1788,-2.1847,-2.1862,-2.1887,-2.1898,-2.1885,-2.1882,-2.1908,-2.1908,-2.1916,-2.1916,-2.1916,-2.1915,0,-2.109,-2.1143,-2.1208,-2.1287,-2.1308,-2.1342,-2.141,-2.1447,-2.1489,-2.1546,-2.1562,-2.163,-2.1692,-2.1747,-2.1828,-2.1855,-2.1917,-2.1929,-2.1896,-2.1902,-2.1922,-2.192,-2.197,-2.1981,-2.196,-2.196,-2.196,0,-2.1099,-2.1134,-2.1217,-2.125,-2.1288,-2.134,-2.1379,-2.1434,-2.1473,-2.1548,-2.1576,-2.1641,-2.1695,-2.1792,-2.185,-2.1913,-2.1928,-2.1941,-2.1938,-2.1925,-2.1932,-2.193,-2.1936,-2.1941,-2.1941,-2.1941,-2.1941,0,-2.1111,-2.1137,-2.1191,-2.1255,-2.13,-2.1353,-2.1407,-2.1432,-2.1498,-2.154,-2.1604,-2.1646,-2.1731,-2.1795,-2.1866,-2.1907,-2.1936,-2.1942,-2.1951,-2.1939,-2.192,-2.1934,-2.1898,-2.1941,-2.1941,-2.1941,-2.1941,-2.1941,-2.1113,-2.1147,-2.1212,-2.1272,-2.1319,-2.1369,-2.1409,-2.1457,-2.1512,-2.1585,-2.1614,-2.168,-2.1745,-2.1843,-2.1884,-2.1938,-2.1943,-2.1955,-2.1959,-2.1961,-2.1961,-2.191,-2.195,-2.195,-2.1951,-2.1951,-2.1951,0,-2.113,-2.1175,-2.1229,-2.1305,-2.1352,-2.1375,-2.1438,-2.1476,-2.1534,-2.1592,-2.1646,-2.1721,-2.1785,-2.1848,-2.1916,-2.1947,-2.1963,-2.1964,-2.1963,-2.1973,-2.195,-2.1937,-2.195,-2.195,-2.195,-2.195,-2.195,-2.195,-2.1144,-2.1205,-2.1239,-2.1324,-2.1369,-2.1434,-2.1468,-2.1517,-2.1564,-2.1646,-2.17,-2.1741,-2.1802,-2.1875,-2.1936,-2.1953,-2.1978,-2.1975,-2.1996,-2.1974,-2.1974,-2.1973,-2.1961,-2.1979,-2.1979,-2.2015,-2.2015,-2.2016]}]]